Location: *
(43.0333°N, 0.6678°E)
Time: 11:34:11
(UTC+00:00)

Daily predictions for brighter satellites

Satellite Brightness Start Highest point End
(mag) Time Altitude Azimuth Time Altitude Azimuth Time Altitude Azimuth
Cosmos 1842 3.7 18:16:40 10° NNW 18:20:37 69° W 18:24:31 10° S
Ariane Rocket 3.5 18:16:04 10° SE 18:20:43 39° ENE 18:25:27 10° N
Cosmos 405 Rocket 4.0 18:19:56 10° SE 18:22:37 19° E 18:25:19 10° NE
Aureole 1 Rocket 3.5 18:19:15 10° NNW 18:23:53 62° WSW 18:27:27 10° S
Cosmos 2151 Rocket 4.5 18:20:03 10° SSW 18:24:21 55° W 18:28:41 10° N
PSLV R/B 3.4 18:23:05 10° WSW 18:25:37 38° SSE 18:28:09 10° E
Cosmos 1455 Rocket 4.5 18:23:09 10° SE 18:26:09 18° E 18:29:10 10° NE
CSL-04 Rocket 3.8 18:21:30 10° SSE 18:27:01 89° ENE 18:32:37 10° NNW
Lacrosse 5 rocket 1.2 18:23:32 10° SSW 18:27:02 51° SE 18:30:40 10° NE
USA 234 4.2 18:22:50 10° NE 18:29:05 48° NNW 18:35:20 10° W
Cosmos 389 Rocket 3.3 18:26:49 10° NNE 18:29:51 28° ENE 18:32:52 10° SE
ASTEX 1 4.2 18:25:48 10° NNE 18:30:03 29° E 18:34:16 10° SSE
Cosmos 407 Rocket 3.7 18:27:20 10° N 18:32:18 47° ENE 18:37:14 10° SE
Cosmos 1441 Rocket 3.3 18:30:30 10° SSW 18:34:17 78° WNW 18:38:03 10° N
USA 186 3.7 18:33:12 11° ESE 18:35:07 15° ENE 18:37:11 10° NNE
Cosmos 2237 Rocket 2.4 18:30:14 10° NNW 18:35:52 56° ENE 18:41:27 10° SE
Cosmos 2056 Rocket 3.8 18:31:03 10° S 18:36:13 47° ESE 18:41:23 10° NNE
ISS -3.6 18:33:16 10° WSW 18:36:35 75° NNW 18:39:55 10° NE
CSL-04 Debris 4.4 18:31:53 10° S 18:37:16 75° WSW 18:42:42 10° NNW
Cosmos 1939 Rocket 2.9 18:34:14 10° SSE 18:37:58 51° ENE 18:41:44 10° N
Cosmos 1437 Rocket 4.5 18:36:16 10° NNE 18:38:24 14° ENE 18:39:44 12° E
Cosmos 2333 Rocket 3.0 18:33:16 10° NNW 18:38:51 56° WSW 18:44:25 10° S
DELTA 2 R/B (1) 3.9 18:34:30 10° WSW 18:39:57 54° SSE 18:44:50 13° E
ERBS 3.8 18:38:05 10° NNW 18:40:53 23° NNE 18:43:05 13° E
USA 116 4.2 18:39:14 10° N 18:42:54 56° WNW 18:46:10 10° SSW
Meteor 1-15 Rocket 4.5 18:37:44 10° SSE 18:43:17 50° E 18:48:56 10° NNE
Cosmos 1140 Rocket 3.9 18:40:36 10° N 18:45:30 42° ENE 18:50:22 10° SE
Cosmos 1980 3.7 18:40:39 10° NNW 18:46:19 71° ENE 18:51:56 10° SSE
SAR-Lupe-2 4.3 18:43:55 10° NE 18:47:08 30° E 18:50:18 10° SSE
Cosmos 1624 Rocket 4.0 18:42:09 10° S 18:47:14 60° ESE 18:52:21 10° NNE
Cosmos 1544 3.9 18:43:44 10° SSW 18:47:15 54° W 18:50:49 10° N
ATLAS 2AS CENTAUR R/B 3.5 18:41:58 10° NW 18:49:22 57° WSW 18:56:06 10° SSE
Okean 1 Rocket 3.6 18:47:54 10° SSW 18:52:12 64° W 18:56:34 10° N
Cosmos 1805 4.5 18:54:15 16° SE 18:56:04 21° E 18:59:03 10° NE
EO 1 Delta rocket 4.4 18:53:54 10° SSE 19:00:10 57° ENE 19:05:14 10° N
Cosmos 2219 Rocket 3.8 18:59:49 10° NW 19:04:50 35° WSW 19:09:50 10° SSW
Cosmos 2181 Rocket 4.1 18:59:24 10° SSE 19:05:28 55° E 19:11:40 10° NNE
Cosmos 1707 3.2 19:02:31 10° NNW 19:06:25 65° W 19:10:18 10° S
Lacrosse 5 3.0 19:04:30 10° S 19:08:16 21° ESE 19:08:26 21° ESE
Cosmos 482 Debris 4.4 19:03:04 10° SW 19:08:35 60° SE 19:10:35 24° ENE
GEOS 3 Rocket 3.9 19:05:54 20° ESE 19:09:11 49° NE 19:14:06 10° NNW
Cosmos 2341 Rocket 3.9 19:03:03 10° N 19:09:18 77° E 19:15:29 10° SSE
SL-16 R/B 2.7 19:04:13 10° NNW 19:09:35 41° ENE 19:12:43 22° ESE
Meteor 1-4 Rocket 2.3 19:11:50 10° N 19:15:22 83° E 19:18:16 14° SSE
Cosmos 2366 rocket 4.2 19:12:45 10° N 19:18:57 51° ENE 19:24:13 14° SSE
Cosmos 2218 Rocket 4.1 19:15:01 10° N 19:21:17 57° ENE 19:26:58 12° SSE
Cosmos 2082 3.7 19:17:06 10° S 19:22:44 63° ESE 19:28:23 10° NNE
SPOT 3 Rocket 3.6 19:19:19 19° SE 19:22:52 56° ENE 19:27:54 10° N
ARGOS 3.6 19:20:36 26° ESE 19:23:04 41° ENE 19:28:05 10° N
FREGAT/IRIS 2.5 19:23:41 30° S 19:24:52 74° WSW 19:27:42 10° NNW
Resurs 01 Rocket 2.9 19:26:29 23° ENE 19:26:29 23° ENE 19:29:48 10° NNE
RESURS DK-1 3.7 19:22:56 10° N 19:26:18 23° NE 19:26:21 23° NE
SL-8 Rocket 3.9 19:20:27 10° N 19:26:39 74° E 19:32:47 10° SSE
Cosmos 1892 Rocket 3.6 19:22:43 10° N 19:27:10 78° W 19:31:33 10° S
Meteor 2-5 Rocket 3.7 19:23:32 10° N 19:29:25 72° ENE 19:34:40 14° SSE
Cosmos 1452 Rocket 3.6 19:25:12 10° S 19:30:15 51° ESE 19:35:20 10° NNE
Meteor 1-22 Rocket 4.5 19:25:12 10° S 19:31:04 53° E 19:37:00 10° NNE
Cosmos 676 Rocket 3.9 19:26:21 10° NNW 19:31:38 85° ENE 19:35:02 22° SSE
CZ-2C R/B 3.9 19:30:52 30° E 19:31:53 32° ENE 19:36:47 10° N
Cosmos 2227 Rocket 2.6 19:31:02 10° SW 19:36:39 66° WNW 19:42:19 10° NNE
Cosmos 1959 Rocket 4.4 19:32:10 10° N 19:38:20 75° E 19:43:32 15° SSE
CZ-2C R/B 3.7 19:35:25 10° NNE 19:39:52 81° WNW 19:44:18 10° SSW
SJ-6B 2.8 19:41:08 35° SSE 19:42:49 89° WSW 19:46:54 10° NNW
SJ-11-01 4.5 19:39:06 13° S 19:43:16 72° WSW 19:48:02 10° NNW
Cosmos 1766 3.1 19:42:44 17° S 19:45:39 89° E 19:49:35 10° N
Cosmos 2297 Rocket 3.0 19:41:11 10° SW 19:46:42 52° WNW 19:52:15 10° NNE
ADEOS Rocket 3.5 19:43:55 10° NNE 19:51:27 68° ESE 19:59:11 10° S
H-2A R/B 1.8 19:49:53 43° SSE 19:51:30 76° ENE 19:56:35 10° N
SL-08 RB Rocket 3.8 19:58:55 61° ENE 19:58:55 61° ENE 20:03:27 10° N
SL-8 R/B 4.0 19:54:09 10° WNW 19:58:52 54° NNE 19:59:31 49° NE
Cosmos 1544 Rocket 4.4 19:59:15 10° SSW 20:03:36 51° WNW 20:07:58 10° N
Cosmos 1455 Rocket 4.3 19:59:26 10° SSW 20:03:38 41° WNW 20:07:52 10° N
Cosmos 1850 Rocket 3.9 19:59:35 10° NNW 20:04:45 65° ENE 20:04:53 64° ENE
USA 186 3.6 20:04:57 28° SW 20:05:46 32° W 20:08:52 10° NNW
Cosmos 1674 3.2 20:02:31 10° NNW 20:06:06 55° W 20:06:06 55° W
Lacrosse 5 rocket 3.2 20:03:20 10° W 20:06:24 24° NNW 20:08:05 18° N
Cosmos 1943 4.4 20:03:29 10° N 20:07:51 27° NE 20:07:51 27° NE
BREEZE M DEB (TANK) 3.4 20:10:06 10° NW 20:12:29 39° N 20:12:29 39° N
ISS -1.5 20:11:04 10° WNW 20:13:26 22° NNW 20:13:26 22° NNW
Cosmos 1437 Rocket 3.9 20:11:19 10° NNW 20:14:51 38° W 20:15:10 37° WSW
ERBS 4.3 20:14:10 10° WNW 20:16:07 28° W 20:16:07 28° W
Cosmos 2237 Rocket 4.4 20:15:12 10° NW 20:19:28 22° W 20:23:44 10° SSW
Cosmos 1626 Rocket 4.2 20:20:09 10° NNW 20:24:09 53° W 20:24:09 53° W
DELTA 2 R/B (1) 3.8 20:20:37 10° W 20:25:36 57° SSW 20:25:36 57° SSW
Spot 2 Rocket 4.3 20:37:40 42° N 20:37:40 42° N 20:41:03 10° N
Cosmos 1741 Rocket 4.2 20:31:36 10° NNW 20:36:35 68° W 20:36:35 68° W
CZ-2C R/B 4.4 20:41:35 10° NNE 20:43:38 23° NNE 20:43:38 23° NNE
Cosmos 1603 4.2 20:43:53 10° NNW 20:48:13 52° N 20:48:13 52° N
Lacrosse 5 3.6 20:45:43 10° SW 20:47:46 24° WSW 20:47:46 24° WSW
SL-16 R/B 3.6 20:48:37 10° NW 20:53:32 31° WSW 20:54:38 29° SW
Nadezhda 3 Rocket 4.2 20:55:43 67° W 20:55:52 67° W 21:02:05 10° N
Resurs 01 Rocket 3.6 21:04:04 27° WNW 21:04:04 27° WNW 21:06:38 10° NNW
CZ-2C R/B 4.4 21:11:56 35° W 21:11:56 35° W 21:16:43 10° NNW
CZ-4C R/B 4.1 21:37:08 10° NNW 21:42:04 32° NNE 21:42:04 32° NNE
